Ardabil, Iran

5:18 PM +0330 on October 23, 2019 (GMT +0330)
Ardabil

Weather History for OITL - August, 2019

Change the Weather History Date:

Thursday, August 22, 2019

  Actual Average (WUND) Record (WUND)
Temperature  
Mean Temperature 64 °F -  
Max Temperature 84 °F - - (-1)
Min Temperature 44 °F - - (-1)
Degree Days  
Heating Degree Days 1    
Growing Degree Days 14 (Base 50)    
Moisture  
Dew Point 44 °F    
Average Humidity 41    
Maximum Humidity 71    
Minimum Humidity 24    
Precipitation  
Precipitation 0.00 in - - ()
Sea Level Pressure  
Sea Level Pressure 30.03 in    
Wind  
Wind Speed 11 mph ()    
Max Wind Speed 29 mph    
Max Gust Speed -    
Averages and records for this station are not official NWS values.
T = Trace of Precipitation, MM = Missing Value Source: Averaged Metar Reports

Daily Weather History Graph

Daily Weather History Graph

Search for Another Location

Airport or City:

Astronomy

Aug. 22, 2019 Rise Set
Actual Time 6:36 AM +0430 8:01 PM +0430
Civil Twilight 6:08 AM +0430 8:29 PM +0430
Nautical Twilight 5:35 AM +0430 9:02 PM +0430
Astronomical Twilight 5:00 AM +0430 9:37 PM +0430
Moon 11:43 PM +0430 (8/22) 12:43 PM +0430 (8/22)
Length of Visible Light 14h 20m
Length of Day
13h 24m
Waning Gibbous, 63% of the Moon is Illuminated
Aug 22
Waning Gibbous
Aug 23
Last Quarter
Aug 30
New
Sep 6
First Quarter
Sep 14
Full

Hourly Weather History & Observations

Time (+0430) Temp. Windchill Dew Point Humidity Pressure Visibility Wind Dir Wind Speed Gust Speed Precip Events Conditions
12:20 AM 59.0 °F - 42.8 °F 55% 30.09 in - SSE 6.9 mph - N/A   Clear
1:23 AM 51.8 °F - 37.4 °F 58% 30.09 in - ESE 6.9 mph - N/A   Clear
2:23 AM 50.0 °F - 35.6 °F 58% 30.09 in - ESE 4.6 mph - N/A   Clear
3:22 AM 50.0 °F - 35.6 °F 58% 30.09 in - SE 4.6 mph - N/A   Clear
4:21 AM 48.2 °F - 35.6 °F 62% 30.09 in - ENE 4.6 mph - N/A   Clear
5:21 AM 44.6 °F - 32.0 °F 61% 30.06 in - Calm Calm - N/A   Clear
6:21 AM 44.6 °F 42.2 °F 35.6 °F 71% 30.06 in - SW 4.6 mph - N/A   Clear
7:21 AM 46.4 °F - 33.8 °F 62% 30.09 in - Calm Calm - N/A   Clear
7:30 AM 46.4 °F - 33.8 °F 62% 30.09 in - Calm Calm - N/A   Clear
8:20 AM 53.6 °F - 39.2 °F 58% 30.06 in - Calm Calm - N/A   Clear
9:30 AM 64.4 °F - 42.8 °F 45% 30.09 in - Calm Calm - N/A   Clear
10:00 AM 68.0 °F - 41.0 °F 37% 30.09 in - Calm Calm - N/A   Clear
10:21 AM 73.4 °F - 42.8 °F 33% 30.06 in - ESE 4.6 mph - N/A   Clear
10:30 AM 73.4 °F - 42.8 °F 33% 30.06 in - ESE 4.6 mph - N/A   Clear
11:00 AM 75.2 °F - 39.2 °F 27% 30.06 in - ESE 6.9 mph - N/A   Clear
11:20 AM 78.8 °F - 41.0 °F 26% 30.06 in - East 6.9 mph - N/A   Clear
12:00 PM 80.6 °F - 41.0 °F 24% 30.06 in - East 11.5 mph - N/A   Clear
12:22 PM 82.4 °F - 42.8 °F 25% 30.04 in - East 16.1 mph - N/A   Clear
12:30 PM 82.4 °F - 42.8 °F 25% 30.04 in - East 16.1 mph - N/A   Clear
1:00 PM 82.4 °F - 46.4 °F 28% 30.04 in - NE 18.4 mph - N/A   Clear
1:20 PM 84.2 °F - 46.4 °F 27% 30.04 in - ENE 18.4 mph - N/A   Clear
1:30 PM 84.2 °F - 46.4 °F 27% 30.04 in - ENE 18.4 mph - N/A   Clear
2:00 PM 82.4 °F - 51.8 °F 35% 30.04 in - ENE 19.6 mph - N/A   Clear
2:20 PM 82.4 °F - 51.8 °F 35% 30.01 in - ENE 24.2 mph - N/A   Clear
2:30 PM 82.4 °F - 51.8 °F 35% 30.01 in - ENE 24.2 mph - N/A   Clear
3:00 PM 84.2 °F - 53.6 °F 35% 30.01 in - ENE 24.2 mph - N/A   Clear
3:21 PM 82.4 °F - 51.8 °F 35% 30.01 in - ENE 26.5 mph - N/A   Clear
4:21 PM 80.6 °F - 50.0 °F 34% 30.01 in - ENE 28.8 mph - N/A   Clear
4:30 PM 80.6 °F - 50.0 °F 34% 30.01 in - ENE 28.8 mph - N/A   Clear
5:21 PM 78.8 °F - 48.2 °F 34% 29.98 in - ENE 26.5 mph - N/A   Clear
5:30 PM 78.8 °F - 48.2 °F 34% 29.98 in - ENE 26.5 mph - N/A   Clear
6:00 PM 78.8 °F - 46.4 °F 32% 29.98 in - ENE 26.5 mph - N/A   Clear
6:20 PM 77.0 °F - 48.2 °F 36% 29.98 in - ENE 24.2 mph - N/A   Clear
6:30 PM 77.0 °F - 48.2 °F 36% 29.98 in - ENE 24.2 mph - N/A   Clear
7:00 PM 75.2 °F - 50.0 °F 41% 29.98 in - ENE 26.5 mph - N/A   Clear
7:21 PM 73.4 °F - 48.2 °F 41% 29.98 in - ENE 26.5 mph - N/A   Clear
7:30 PM 73.4 °F - 48.2 °F 41% 29.98 in - ENE 26.5 mph - N/A   Clear
8:00 PM 71.6 °F - 46.4 °F 41% 29.98 in - ENE 24.2 mph - N/A   Clear
8:20 PM 69.8 °F - 44.6 °F 40% 29.98 in - ENE 19.6 mph - N/A   Clear
8:30 PM 69.8 °F - 44.6 °F 40% 29.98 in - ENE 19.6 mph - N/A   Clear
9:00 PM 69.8 °F - 44.6 °F 40% 30.01 in - ENE 19.6 mph - N/A   Clear
9:22 PM 69.8 °F - 48.2 °F 46% 30.01 in - ENE 18.4 mph - N/A   Clear
9:30 PM 69.8 °F - 48.2 °F 46% 30.01 in - ENE 18.4 mph - N/A   Clear
10:20 PM 64.4 °F - 46.4 °F 52% 30.04 in - ESE 11.5 mph - N/A   Clear
11:22 PM 62.6 °F - 48.2 °F 59% 30.04 in - East 9.2 mph - N/A   Clear